Location: Lhota
(50.0887°N, 14.0116°E)
Time: 10:19:32
(UTC+00:00)

Cosmos 2181 Rocket - Pass Details

Date: 19 May 2025
Orbit: 952 x 1013 km, 82.9° (Epoch: 23 June)

Event Time Altitude Azimuth Distance (km) Brightness Sun altitude
Exits shadow 20:58:42 14° 186° (S) 2,423 5.6 -14.9°
Maximum altitude 21:04:09 87° 99° (E) 1,000 4.0 -15.4°
Drops below altitude 10° 21:10:35 10° 10° (N) 2,785 7.2 -15.8°
Sets 21:13:08 0° 11° (N) 3,746 8.0 -16.0°
